BRS2901 GVAC-SBBR

Flight info

Callsign BRS2901
Flight time 5h 35m
Altitude 38000
Route MELUT/N0472F390 UW46 KEPAS UN741 NANIK/N0470F380 UN741 DIKEB/N0466F400 UN741 ROLID UZ18 VADOP
Aircraft A332/H-SDE3GHIJ2J3J5M1RVWXY/LB2D1

Departure

Time 2026-04-24 20:16
Airport Amílcar Cabral International Airport (GVAC)

Arrival

Time 2026-04-25 01:51
Airport Presidente Juscelino Kubitschek International Airport (SBBR)
Time Latitude Longitude Altitude Speed Heading
2026-04-24 18:54 16.73170 -22.94501 195 ft 0 kts 89°
2026-04-24 20:08 16.73170 -22.94513 195 ft 2 kts 89°
2026-04-24 20:08 16.73170 -22.94529 195 ft 2 kts 89°
2026-04-24 20:08 16.73170 -22.94544 195 ft 2 kts 101°
2026-04-24 20:09 16.73175 -22.94559 195 ft 2 kts 117°
2026-04-24 20:09 16.73183 -22.94572 195 ft 2 kts 132°
2026-04-24 20:09 16.73193 -22.94583 195 ft 2 kts 146°
2026-04-24 20:09 16.73206 -22.94590 195 ft 2 kts 161°
2026-04-24 20:10 16.73221 -22.94594 195 ft 2 kts 175°
2026-04-24 20:10 16.73228 -22.94595 195 ft 1 kts 181°
2026-04-24 20:10 16.73229 -22.94595 195 ft 0 kts 180°
2026-04-24 20:12 16.73209 -22.94595 195 ft 4 kts 180°
2026-04-24 20:12 16.73183 -22.94595 195 ft 5 kts 180°
2026-04-24 20:12 16.73125 -22.94595 195 ft 8 kts 182°
2026-04-24 20:13 16.73064 -22.94642 195 ft 13 kts 236°
2026-04-24 20:13 16.72981 -22.94691 195 ft 15 kts 184°
2026-04-24 20:13 16.72871 -22.94690 193 ft 15 kts 180°
2026-04-24 20:13 16.72759 -22.94690 192 ft 16 kts 179°
2026-04-24 20:14 16.72641 -22.94689 190 ft 17 kts 180°
2026-04-24 20:14 16.72521 -22.94688 189 ft 17 kts 179°
2026-04-24 20:14 16.72436 -22.94694 188 ft 9 kts 202°
2026-04-24 20:14 16.72408 -22.94749 188 ft 9 kts 265°
2026-04-24 20:15 16.72408 -22.94846 188 ft 15 kts 274°
2026-04-24 20:15 16.72502 -22.94888 187 ft 22 kts 359°
2026-04-24 20:15 16.72937 -22.94891 192 ft 108 kts 360°
2026-04-24 20:15 16.73978 -22.94898 283 ft 180 kts
2026-04-24 20:16 16.75295 -22.94954 1126 ft 196 kts
2026-04-24 20:16 16.76503 -22.94985 2135 ft 176 kts
2026-04-24 20:16 16.77791 -22.94989 2530 ft 193 kts
2026-04-24 20:16 16.79207 -22.94990 2960 ft 213 kts
2026-04-24 20:17 16.80764 -22.94990 3492 ft 232 kts
2026-04-24 20:17 16.84223 -22.95040 4706 ft 262 kts 351°
2026-04-24 20:17 16.85893 -22.95788 5516 ft 268 kts 322°
2026-04-24 20:18 16.86730 -22.96728 6078 ft 270 kts 303°
2026-04-24 20:18 16.87345 -22.99203 7220 ft 274 kts 266°
2026-04-24 20:18 16.87132 -23.01170 8100 ft 274 kts 268°
2026-04-24 20:18 16.87062 -23.03145 8929 ft 276 kts 269°
2026-04-24 20:19 16.87030 -23.05157 9754 ft 277 kts 270°
2026-04-24 20:19 16.87011 -23.07139 10463 ft 282 kts 270°
2026-04-24 20:19 16.86995 -23.09239 10859 ft 298 kts 270°
2026-04-24 20:19 16.86979 -23.11476 11156 ft 317 kts 270°
2026-04-24 20:20 16.86957 -23.13849 11415 ft 336 kts 269°
2026-04-24 20:20 16.86737 -23.16333 11654 ft 353 kts 264°
2026-04-24 20:20 16.86476 -23.18899 12266 ft 357 kts 264°
2026-04-24 20:20 16.86212 -23.21489 12974 ft 359 kts 264°
2026-04-24 20:21 16.85948 -23.24094 13596 ft 362 kts 264°
2026-04-24 20:21 16.85685 -23.26688 14167 ft 366 kts 265°
2026-04-24 20:21 16.85414 -23.29360 14685 ft 370 kts 265°
2026-04-24 20:21 16.85145 -23.32013 15185 ft 375 kts 265°
2026-04-24 20:22 16.84867 -23.34749 15681 ft 379 kts 265°
2026-04-24 20:22 16.84588 -23.37491 16166 ft 383 kts 265°
2026-04-24 20:22 16.84306 -23.40256 16635 ft 386 kts 265°
2026-04-24 20:22 16.84021 -23.43037 17092 ft 390 kts 265°
2026-04-24 20:23 16.83732 -23.45867 17484 ft 394 kts 265°
2026-04-24 20:23 16.83439 -23.48719 17932 ft 397 kts 265°
2026-04-24 20:23 16.83145 -23.51570 18457 ft 397 kts 265°
2026-04-24 20:23 16.82850 -23.54445 18926 ft 399 kts 266°
2026-04-24 20:24 16.82652 -23.56359 19239 ft 399 kts 266°
2026-04-24 20:24 16.82258 -23.60187 19854 ft 400 kts 266°
2026-04-24 20:24 16.81958 -23.63104 20249 ft 402 kts 267°
2026-04-24 20:24 16.81484 -23.65952 20621 ft 407 kts 259°
2026-04-24 20:25 16.80733 -23.68833 21006 ft 409 kts 259°
2026-04-24 20:25 16.79998 -23.71702 21348 ft 411 kts 259°
2026-04-24 20:25 16.79269 -23.74548 21694 ft 413 kts 259°
2026-04-24 20:25 16.78525 -23.77456 22072 ft 414 kts 259°
2026-04-24 20:26 16.77780 -23.80374 22466 ft 414 kts 259°
2026-04-24 20:26 16.77041 -23.83270 22727 ft 417 kts 259°
2026-04-24 20:26 16.76299 -23.86171 23062 ft 416 kts 259°
2026-04-24 20:26 16.75553 -23.89092 23234 ft 420 kts 259°
2026-04-24 20:27 16.74800 -23.92032 23427 ft 423 kts 259°
2026-04-24 20:27 16.74039 -23.95002 23701 ft 423 kts 259°
2026-04-24 20:27 16.73314 -23.97825 24026 ft 423 kts 259°
2026-04-24 20:27 16.72556 -24.00782 24373 ft 422 kts 259°
2026-04-24 20:28 16.71801 -24.03724 24724 ft 421 kts 259°
2026-04-24 20:28 16.71115 -24.06399 25034 ft 420 kts 259°
2026-04-24 20:28 16.70364 -24.09316 25361 ft 420 kts 259°
2026-04-24 20:28 16.69609 -24.12250 25718 ft 420 kts 259°
2026-04-24 20:29 16.69098 -24.14237 25960 ft 419 kts 259°
2026-04-24 20:29 16.68092 -24.18145 26416 ft 419 kts 259°
2026-04-24 20:29 16.67335 -24.21079 26768 ft 419 kts 259°
2026-04-24 20:29 16.66588 -24.23978 27109 ft 419 kts 259°
2026-04-24 20:30 16.65830 -24.26919 27361 ft 421 kts 259°
2026-04-24 20:30 16.65072 -24.29852 27642 ft 423 kts 259°
2026-04-24 20:30 16.64300 -24.32841 27990 ft 423 kts 259°
2026-04-24 20:30 16.63530 -24.35823 28047 ft 429 kts 258°
2026-04-24 20:31 16.62755 -24.38819 27986 ft 439 kts 259°
2026-04-24 20:31 16.61950 -24.41933 28100 ft 442 kts 258°
2026-04-24 20:31 16.61155 -24.44995 28436 ft 441 kts 258°
2026-04-24 20:31 16.60357 -24.48075 28797 ft 439 kts 258°
2026-04-24 20:32 16.59561 -24.51140 29137 ft 438 kts 258°
2026-04-24 20:32 16.58774 -24.54172 29468 ft 438 kts 258°
2026-04-24 20:32 16.57979 -24.57239 29816 ft 437 kts 259°
2026-04-24 20:32 16.57185 -24.60291 30154 ft 437 kts 259°
2026-04-24 20:33 16.56399 -24.63316 30495 ft 436 kts 259°
2026-04-24 20:33 16.55597 -24.66398 30819 ft 436 kts 258°
2026-04-24 20:33 16.54811 -24.69420 31164 ft 436 kts 258°
2026-04-24 20:33 16.54019 -24.72458 31534 ft 435 kts 258°
2026-04-24 20:34 16.53226 -24.75499 31893 ft 434 kts 258°
2026-04-24 20:34 16.52436 -24.78529 32246 ft 434 kts 258°
2026-04-24 20:34 16.51640 -24.81582 32605 ft 433 kts 258°
2026-04-24 20:34 16.51116 -24.83586 32868 ft 433 kts 258°
2026-04-24 20:35 16.50330 -24.86595 33247 ft 433 kts 258°
2026-04-24 20:35 16.49552 -24.89573 33640 ft 432 kts 258°
2026-04-24 20:35 16.48754 -24.92626 34047 ft 431 kts 258°
2026-04-24 20:35 16.47971 -24.95619 34434 ft 430 kts 258°
2026-04-24 20:36 16.47192 -24.98594 34811 ft 430 kts 258°
2026-04-24 20:36 16.46404 -25.01599 35230 ft 429 kts 257°
2026-04-24 20:36 16.45619 -25.04590 35641 ft 428 kts 257°
2026-04-24 20:36 16.44843 -25.07549 36002 ft 427 kts 257°
2026-04-24 20:37 16.44056 -25.10549 36407 ft 426 kts 257°
2026-04-24 20:37 16.43282 -25.13489 36799 ft 424 kts 257°
2026-04-24 20:37 16.42506 -25.16442 37210 ft 422 kts 257°
2026-04-24 20:37 16.41736 -25.19372 37605 ft 420 kts 257°
2026-04-24 20:38 16.40962 -25.22311 38098 ft 418 kts 257°
2026-04-24 20:38 16.40197 -25.25217 38519 ft 416 kts 256°
2026-04-24 20:38 16.39438 -25.28093 38957 ft 414 kts 256°
2026-04-24 20:38 16.38669 -25.31009 39010 ft 420 kts 256°
2026-04-24 20:39 16.37102 -25.36949 39031 ft 431 kts 256°
2026-04-24 20:39 16.35502 -25.43006 39014 ft 441 kts 256°
2026-04-24 20:40 16.33865 -25.49188 39013 ft 448 kts 256°
2026-04-24 20:40 16.32201 -25.55469 39011 ft 453 kts 256°
2026-04-24 20:41 16.30518 -25.61813 39009 ft 456 kts 256°
2026-04-24 20:41 16.28831 -25.68165 39018 ft 459 kts 256°
2026-04-24 20:42 16.27127 -25.74570 39015 ft 461 kts 256°
2026-04-24 20:42 16.25428 -25.80947 39016 ft 456 kts 256°
2026-04-24 20:43 16.23732 -25.87308 39013 ft 454 kts 256°
2026-04-24 20:43 16.22044 -25.93633 39011 ft 456 kts 256°
2026-04-24 20:44 16.20629 -25.98923 39013 ft 455 kts 256°
2026-04-24 20:44 16.18663 -26.06273 39011 ft 456 kts 256°
2026-04-24 20:45 16.16964 -26.12613 39009 ft 455 kts 256°
2026-04-24 20:45 16.15263 -26.18950 39009 ft 454 kts 256°
2026-04-24 20:46 16.13570 -26.25236 39010 ft 455 kts 255°
2026-04-24 20:46 16.10618 -26.31090 39048 ft 459 kts 240°
2026-04-24 20:47 16.07795 -26.35796 39009 ft 462 kts 240°
2026-04-24 20:47 16.03867 -26.42422 39007 ft 462 kts 241°
2026-04-24 20:48 16.00522 -26.48069 39008 ft 460 kts 241°
2026-04-24 20:48 15.97174 -26.53718 39004 ft 460 kts 241°
2026-04-24 20:49 15.93806 -26.59396 39002 ft 460 kts 241°
2026-04-24 20:49 15.90461 -26.65031 39004 ft 460 kts 240°
2026-04-24 20:50 15.87089 -26.70707 39020 ft 463 kts 240°
2026-04-24 20:50 15.83712 -26.76386 39024 ft 463 kts 240°
2026-04-24 20:51 15.80326 -26.82076 39026 ft 463 kts 240°
2026-04-24 20:51 15.76949 -26.87748 39027 ft 463 kts 240°
2026-04-24 20:52 15.73564 -26.93430 39027 ft 463 kts 240°
2026-04-24 20:52 15.70187 -26.99090 39027 ft 463 kts 240°
2026-04-24 20:53 15.66797 -27.04770 39026 ft 463 kts 240°
2026-04-24 20:53 15.63422 -27.10423 39025 ft 464 kts 240°
2026-04-24 20:54 15.60034 -27.16089 39027 ft 464 kts 240°
2026-04-24 20:54 15.56638 -27.21766 39028 ft 464 kts 240°
2026-04-24 20:55 15.53234 -27.27452 39027 ft 464 kts 240°
2026-04-24 20:55 15.49819 -27.33153 39026 ft 465 kts 240°
2026-04-24 20:56 15.46420 -27.38821 39026 ft 465 kts 240°
2026-04-24 20:56 15.43000 -27.44520 39023 ft 466 kts 240°
2026-04-24 20:57 15.39569 -27.50236 39024 ft 466 kts 240°
2026-04-24 20:57 15.36150 -27.55924 39020 ft 466 kts 240°
2026-04-24 20:58 15.32718 -27.61631 39019 ft 466 kts 240°
2026-04-24 20:58 15.29320 -27.67277 39019 ft 450 kts 239°
2026-04-24 20:59 15.27705 -27.69958 39017 ft 437 kts 239°
2026-04-24 20:59 15.26088 -27.72645 39025 ft 436 kts 239°
2026-04-24 20:59 15.22854 -27.78010 39029 ft 444 kts 239°
2026-04-24 21:00 15.20119 -27.82546 39025 ft 446 kts 239°
2026-04-24 21:00 15.17401 -27.87049 39028 ft 446 kts 239°
2026-04-24 21:01 15.13009 -27.94320 39017 ft 445 kts 239°
2026-04-24 21:01 15.09749 -27.99717 39010 ft 443 kts 239°
2026-04-24 21:02 15.06484 -28.05115 39013 ft 443 kts 239°
2026-04-24 21:02 15.03215 -28.10515 39014 ft 444 kts 239°
2026-04-24 21:03 14.99946 -28.15914 39018 ft 443 kts 239°
2026-04-24 21:03 14.96657 -28.21340 39024 ft 443 kts 239°
2026-04-24 21:04 14.93404 -28.26702 39025 ft 444 kts 239°
2026-04-24 21:04 14.90663 -28.31219 39026 ft 444 kts 239°
2026-04-24 21:05 14.86839 -28.37517 39023 ft 443 kts 239°
2026-04-24 21:05 14.83570 -28.42896 39022 ft 444 kts 239°
2026-04-24 21:06 14.79981 -28.48035 39002 ft 445 kts 223°
2026-04-24 21:06 14.77393 -28.49846 39057 ft 448 kts 209°
2026-04-24 21:06 14.74625 -28.51289 39026 ft 450 kts 210°
2026-04-24 21:07 14.69093 -28.54410 39013 ft 448 kts 211°
2026-04-24 21:07 14.63652 -28.57531 39005 ft 448 kts 211°
2026-04-24 21:08 14.58186 -28.60674 39003 ft 448 kts 210°
2026-04-24 21:08 14.52734 -28.63807 39004 ft 448 kts 210°
2026-04-24 21:09 14.47302 -28.66926 39007 ft 449 kts 210°
2026-04-24 21:09 14.41801 -28.70084 39008 ft 450 kts 210°
2026-04-24 21:10 14.36357 -28.73208 39010 ft 449 kts 210°
2026-04-24 21:10 14.30890 -28.76342 39008 ft 449 kts 210°
2026-04-24 21:11 14.25424 -28.79475 39006 ft 448 kts 210°
2026-04-24 21:11 14.19965 -28.82601 39006 ft 449 kts 210°
2026-04-24 21:12 14.15398 -28.85214 39006 ft 449 kts 210°
2026-04-24 21:12 14.09036 -28.88855 39008 ft 450 kts 210°
2026-04-24 21:13 14.03536 -28.92001 39004 ft 450 kts 210°
2026-04-24 21:13 13.98060 -28.95129 39009 ft 450 kts 210°
2026-04-24 21:14 13.92601 -28.98247 39007 ft 449 kts 210°
2026-04-24 21:14 13.87102 -29.01386 39008 ft 449 kts 210°
2026-04-24 21:15 13.81637 -29.04503 39003 ft 449 kts 210°
2026-04-24 21:15 13.76172 -29.07619 39004 ft 449 kts 210°
2026-04-24 21:16 13.70715 -29.10730 39003 ft 450 kts 210°
2026-04-24 21:16 13.65201 -29.13870 39003 ft 452 kts 210°
2026-04-24 21:17 13.59693 -29.17006 39005 ft 450 kts 209°
2026-04-24 21:17 13.55158 -29.19587 39002 ft 449 kts 210°
2026-04-24 21:18 13.48735 -29.23240 39007 ft 450 kts 209°
2026-04-24 21:18 13.43292 -29.26333 39004 ft 449 kts 209°
2026-04-24 21:19 13.37804 -29.29451 39002 ft 450 kts 209°
2026-04-24 21:19 13.32302 -29.32575 39005 ft 450 kts 209°
2026-04-24 21:20 13.24073 -29.37243 39001 ft 451 kts 209°
2026-04-24 21:21 13.18546 -29.40377 39007 ft 451 kts 209°
2026-04-24 21:21 13.13061 -29.43486 39004 ft 451 kts 209°
2026-04-24 21:22 13.07539 -29.46615 39007 ft 452 kts 209°
2026-04-24 21:22 13.02052 -29.49721 39007 ft 452 kts 209°
2026-04-24 21:23 12.96528 -29.52847 39008 ft 452 kts 209°
2026-04-24 21:23 12.91010 -29.55967 39004 ft 452 kts 209°
2026-04-24 21:24 12.85513 -29.59075 39002 ft 452 kts 209°
2026-04-24 21:24 12.79965 -29.62209 39001 ft 453 kts 209°
2026-04-24 21:25 12.74453 -29.65323 39000 ft 452 kts 209°
2026-04-24 21:25 12.68929 -29.68440 39003 ft 452 kts 209°
2026-04-24 21:26 12.63444 -29.71535 39005 ft 452 kts 208°
2026-04-24 21:26 12.57911 -29.74655 38998 ft 453 kts 208°
2026-04-24 21:27 12.52367 -29.77780 38999 ft 452 kts 208°
2026-04-24 21:27 12.46874 -29.80874 38996 ft 453 kts 208°
2026-04-24 21:28 12.41344 -29.83986 38994 ft 452 kts 208°
2026-04-24 21:28 12.35810 -29.87101 38992 ft 452 kts 208°
2026-04-24 21:29 12.30287 -29.90209 38996 ft 453 kts 208°
2026-04-24 21:29 12.24781 -29.93304 38993 ft 453 kts 208°
2026-04-24 21:30 12.19235 -29.96421 38990 ft 454 kts 208°
2026-04-24 21:30 12.13674 -29.99545 38993 ft 454 kts 208°
2026-04-24 21:31 12.08136 -30.02654 38988 ft 454 kts 208°
2026-04-24 21:31 12.02594 -30.05764 38985 ft 454 kts 208°
2026-04-24 21:32 11.97049 -30.08874 38984 ft 454 kts 208°
2026-04-24 21:32 11.91497 -30.11986 38985 ft 456 kts 208°
2026-04-24 21:33 11.85922 -30.15110 38976 ft 456 kts 208°
2026-04-24 21:33 11.80361 -30.18225 38971 ft 456 kts 208°
2026-04-24 21:34 11.74810 -30.21332 38973 ft 456 kts 208°
2026-04-24 21:34 11.69222 -30.24458 38976 ft 455 kts 208°
2026-04-24 21:35 11.63674 -30.27562 38980 ft 455 kts 208°
2026-04-24 21:35 11.58098 -30.30680 38982 ft 455 kts 208°
2026-04-24 21:36 11.52561 -30.33775 38976 ft 455 kts 208°
2026-04-24 21:36 11.46991 -30.36885 38976 ft 455 kts 208°
2026-04-24 21:37 11.41408 -30.40002 38976 ft 456 kts 208°
2026-04-24 21:37 11.35865 -30.43094 38973 ft 456 kts 208°
2026-04-24 21:38 11.30291 -30.46203 38973 ft 456 kts 208°
2026-04-24 21:38 11.24719 -30.49311 38968 ft 456 kts 208°
2026-04-24 21:39 11.19161 -30.52408 38970 ft 455 kts 208°
2026-04-24 21:39 11.13567 -30.55524 38969 ft 456 kts 208°
2026-04-24 21:40 11.07985 -30.58632 38966 ft 455 kts 208°
2026-04-24 21:40 11.02432 -30.61724 38967 ft 457 kts 208°
2026-04-24 21:41 10.96819 -30.64846 38966 ft 459 kts 208°
2026-04-24 21:41 10.91154 -30.67996 38966 ft 467 kts 208°
2026-04-24 21:42 10.85429 -30.71178 38964 ft 466 kts 208°
2026-04-24 21:42 10.79762 -30.74326 38965 ft 463 kts 208°
2026-04-24 21:43 10.74095 -30.77492 38966 ft 464 kts 208°
2026-04-24 21:43 10.68436 -30.80665 38965 ft 464 kts 208°
2026-04-24 21:44 10.62760 -30.83844 38971 ft 465 kts 208°
2026-04-24 21:44 10.57078 -30.87018 38975 ft 465 kts 207°
2026-04-24 21:45 10.51381 -30.90158 38977 ft 464 kts 207°
2026-04-24 21:45 10.45713 -30.93283 38974 ft 462 kts 207°
2026-04-24 21:46 10.40057 -30.96398 38975 ft 462 kts 207°
2026-04-24 21:46 10.34396 -30.99518 38971 ft 462 kts 207°
2026-04-24 21:47 10.28721 -31.02642 38972 ft 461 kts 207°
2026-04-24 21:47 10.23090 -31.05741 38971 ft 460 kts 207°
2026-04-24 21:48 10.17428 -31.08855 38969 ft 460 kts 207°
2026-04-24 21:48 10.11802 -31.11950 38967 ft 458 kts 207°
2026-04-24 21:49 10.06206 -31.15026 38967 ft 458 kts 207°
2026-04-24 21:49 10.00626 -31.18092 38965 ft 456 kts 207°
2026-04-24 21:50 9.94999 -31.21183 38965 ft 457 kts 207°
2026-04-24 21:50 9.89413 -31.24250 38965 ft 457 kts 207°
2026-04-24 21:51 9.83808 -31.27326 38968 ft 457 kts 207°
2026-04-24 21:51 9.78195 -31.30406 38967 ft 457 kts 207°
2026-04-24 21:52 9.72607 -31.33470 38968 ft 457 kts 207°
2026-04-24 21:52 9.66996 -31.36545 38969 ft 457 kts 206°
2026-04-24 21:53 9.61410 -31.39607 38967 ft 457 kts 206°
2026-04-24 21:53 9.55790 -31.42685 38968 ft 458 kts 206°
2026-04-24 21:54 9.50161 -31.45767 38968 ft 458 kts 206°
2026-04-24 21:54 9.44566 -31.48829 38967 ft 458 kts 206°
2026-04-24 21:55 9.38912 -31.51925 38970 ft 458 kts 206°
2026-04-24 21:55 9.34238 -31.54482 38968 ft 458 kts 206°
2026-04-24 21:56 9.30495 -31.56527 38966 ft 458 kts 206°
2026-04-24 21:57 9.16613 -31.64113 38961 ft 459 kts 206°
2026-04-24 21:57 9.10964 -31.67199 38957 ft 459 kts 206°
2026-04-24 21:58 9.05328 -31.70276 38954 ft 459 kts 205°
2026-04-24 21:58 9.02521 -31.71808 38960 ft 459 kts 205°
2026-04-24 21:59 8.94062 -31.76424 38955 ft 461 kts 205°
2026-04-24 21:59 8.88401 -31.79512 38949 ft 459 kts 205°
2026-04-24 22:00 8.82815 -31.82558 38948 ft 458 kts 205°
2026-04-24 22:00 8.77183 -31.85628 38945 ft 459 kts 205°
2026-04-24 22:01 8.71535 -31.88704 38945 ft 460 kts 205°
2026-04-24 22:01 8.65901 -31.91772 38946 ft 460 kts 205°
2026-04-24 22:02 8.60226 -31.94862 38944 ft 460 kts 205°
2026-04-24 22:02 8.54601 -31.97923 38946 ft 461 kts 205°
2026-04-24 22:03 8.48931 -32.01009 38946 ft 461 kts 205°
2026-04-24 22:03 8.43254 -32.04097 38946 ft 461 kts 205°
2026-04-24 22:04 8.37613 -32.07162 38945 ft 462 kts 205°
2026-04-24 22:04 8.31952 -32.10240 38944 ft 461 kts 205°
2026-04-24 22:05 8.26302 -32.13309 38944 ft 462 kts 205°
2026-04-24 22:05 8.20606 -32.16405 38944 ft 462 kts 205°
2026-04-24 22:06 8.14966 -32.19467 38950 ft 462 kts 205°
2026-04-24 22:06 8.09275 -32.22556 38949 ft 462 kts 205°
2026-04-24 22:07 8.03584 -32.25645 38946 ft 463 kts 205°
2026-04-24 22:07 7.97932 -32.28711 38944 ft 463 kts 205°
2026-04-24 22:08 7.92214 -32.31811 38945 ft 464 kts 205°
2026-04-24 22:08 7.86542 -32.34887 38951 ft 463 kts 205°
2026-04-24 22:09 7.80840 -32.37976 38948 ft 464 kts 205°
2026-04-24 22:09 7.75155 -32.41056 38948 ft 465 kts 205°
2026-04-24 22:10 7.69448 -32.44147 38951 ft 465 kts 205°
2026-04-24 22:10 7.63753 -32.47230 38947 ft 464 kts 205°
2026-04-24 22:11 7.58071 -32.50306 38949 ft 463 kts 206°
2026-04-24 22:11 7.52341 -32.53406 38947 ft 465 kts 206°
2026-04-24 22:12 7.46657 -32.56482 38946 ft 464 kts 206°
2026-04-24 22:12 7.40953 -32.59567 38950 ft 464 kts 205°
2026-04-24 22:13 7.35220 -32.62666 38950 ft 465 kts 206°
2026-04-24 22:13 7.29518 -32.65747 38943 ft 464 kts 205°
2026-04-24 22:14 7.23837 -32.68817 38945 ft 463 kts 206°
2026-04-24 22:14 7.18125 -32.71903 38949 ft 465 kts 206°
2026-04-24 22:15 7.12425 -32.74981 38948 ft 464 kts 206°
2026-04-24 22:15 7.06712 -32.78066 38946 ft 465 kts 206°
2026-04-24 22:16 7.01004 -32.81146 38943 ft 464 kts 206°
2026-04-24 22:16 6.95327 -32.84209 38937 ft 464 kts 206°
2026-04-24 22:17 6.89609 -32.87294 38939 ft 463 kts 206°
2026-04-24 22:17 6.83913 -32.90364 38944 ft 463 kts 206°
2026-04-24 22:18 6.78245 -32.93421 38937 ft 464 kts 206°
2026-04-24 22:18 6.72540 -32.96497 38926 ft 464 kts 205°
2026-04-24 22:19 6.66820 -32.99578 38926 ft 464 kts 205°
2026-04-24 22:19 6.61091 -33.02663 38925 ft 464 kts 206°
2026-04-24 22:20 6.55389 -33.05735 38931 ft 465 kts 205°
2026-04-24 22:20 6.49697 -33.08800 38935 ft 464 kts 205°
2026-04-24 22:21 6.43986 -33.11873 38936 ft 466 kts 205°
2026-04-24 22:21 6.38234 -33.14968 38931 ft 466 kts 205°
2026-04-24 22:22 6.32532 -33.18032 38831 ft 467 kts 205°
2026-04-24 22:22 6.29646 -33.19576 38481 ft 467 kts 205°
2026-04-24 22:22 6.26766 -33.21117 38183 ft 461 kts 205°
2026-04-24 22:22 6.23934 -33.22632 37916 ft 456 kts 205°
2026-04-24 22:23 6.21166 -33.24114 37940 ft 450 kts 205°
2026-04-24 22:23 6.15536 -33.27122 37933 ft 463 kts 205°
2026-04-24 22:24 6.09823 -33.30179 37927 ft 468 kts 205°
2026-04-24 22:24 6.04012 -33.33284 37929 ft 476 kts 205°
2026-04-24 22:24 6.01079 -33.34850 38098 ft 477 kts 205°
2026-04-24 22:25 5.98151 -33.36417 38427 ft 475 kts 204°
2026-04-24 22:25 5.95242 -33.37973 38728 ft 473 kts 204°
2026-04-24 22:25 5.92329 -33.39528 39051 ft 472 kts 205°
2026-04-24 22:25 5.89412 -33.41086 39375 ft 470 kts 205°
2026-04-24 22:26 5.86539 -33.42620 39701 ft 469 kts 205°
2026-04-24 22:26 5.83632 -33.44173 39980 ft 468 kts 205°
2026-04-24 22:26 5.80744 -33.45713 39902 ft 473 kts 205°
2026-04-24 22:27 5.74889 -33.48840 39943 ft 478 kts 205°
2026-04-24 22:27 5.68978 -33.51996 39942 ft 481 kts 205°
2026-04-24 22:28 5.63117 -33.55124 39942 ft 472 kts 205°
2026-04-24 22:28 5.57311 -33.58222 39942 ft 473 kts 205°
2026-04-24 22:29 5.48595 -33.62871 39943 ft 473 kts 205°
2026-04-24 22:29 5.42765 -33.65979 39937 ft 473 kts 205°
2026-04-24 22:30 5.36954 -33.69076 39940 ft 473 kts 205°
2026-04-24 22:30 5.31106 -33.72195 39943 ft 474 kts 205°
2026-04-24 22:31 5.25300 -33.75289 39943 ft 474 kts 204°
2026-04-24 22:31 5.19465 -33.78397 39943 ft 473 kts 205°
2026-04-24 22:32 5.13648 -33.81495 39943 ft 473 kts 205°
2026-04-24 22:32 5.07818 -33.84601 39941 ft 472 kts 204°
2026-04-24 22:33 5.02012 -33.87691 39944 ft 473 kts 204°
2026-04-24 22:33 4.96156 -33.90809 39943 ft 474 kts 205°
2026-04-24 22:34 4.90329 -33.93910 39942 ft 473 kts 205°
2026-04-24 22:34 4.84525 -33.96999 39943 ft 473 kts 205°
2026-04-24 22:35 4.78720 -34.00088 39945 ft 474 kts 204°
2026-04-24 22:35 4.72878 -34.03194 39940 ft 473 kts 205°
2026-04-24 22:36 4.67029 -34.06306 39939 ft 474 kts 204°
2026-04-24 22:36 4.61204 -34.09402 39939 ft 475 kts 205°
2026-04-24 22:37 4.55346 -34.12516 39933 ft 474 kts 205°
2026-04-24 22:37 4.49500 -34.15626 39936 ft 474 kts 205°
2026-04-24 22:38 4.43659 -34.18755 39937 ft 475 kts 205°
2026-04-24 22:38 4.37841 -34.21870 39934 ft 476 kts 205°
2026-04-24 22:39 4.31986 -34.25005 39924 ft 476 kts 205°
2026-04-24 22:39 4.26120 -34.28146 39924 ft 475 kts 205°
2026-04-24 22:40 4.20300 -34.31262 39923 ft 475 kts 205°
2026-04-24 22:40 4.14469 -34.34383 39926 ft 475 kts 205°
2026-04-24 22:41 4.08611 -34.37517 39922 ft 476 kts 205°
2026-04-24 22:41 4.03721 -34.40133 39927 ft 476 kts 205°
2026-04-24 22:42 3.96913 -34.43775 39924 ft 477 kts 205°
2026-04-24 22:42 3.91030 -34.46922 39926 ft 476 kts 205°
2026-04-24 22:43 3.85198 -34.50040 39929 ft 476 kts 205°
2026-04-24 22:43 3.79351 -34.53167 39927 ft 476 kts 205°
2026-04-24 22:44 3.73519 -34.56285 39928 ft 476 kts 205°
2026-04-24 22:44 3.67661 -34.59415 39927 ft 476 kts 205°
2026-04-24 22:45 3.61794 -34.62552 39931 ft 477 kts 205°
2026-04-24 22:45 3.55919 -34.65691 39925 ft 478 kts 205°
2026-04-24 22:46 3.50063 -34.68819 39922 ft 478 kts 205°
2026-04-24 22:46 3.44187 -34.71959 39922 ft 477 kts 205°
2026-04-24 22:47 3.38318 -34.75094 39921 ft 476 kts 205°
2026-04-24 22:47 3.32493 -34.78204 39923 ft 475 kts 205°
2026-04-24 22:48 3.26635 -34.81332 39922 ft 476 kts 205°
2026-04-24 22:48 3.20785 -34.84456 39922 ft 475 kts 205°
2026-04-24 22:49 3.14948 -34.87571 39923 ft 476 kts 205°
2026-04-24 22:49 3.09091 -34.90698 39923 ft 477 kts 205°
2026-04-24 22:50 3.03227 -34.93829 39923 ft 476 kts 205°
2026-04-24 22:50 2.97373 -34.96953 39922 ft 476 kts 205°
2026-04-24 22:51 2.91545 -35.00061 39923 ft 475 kts 205°
2026-04-24 22:51 2.85666 -35.03198 39925 ft 475 kts 205°
2026-04-24 22:52 2.79852 -35.06300 39922 ft 475 kts 205°
2026-04-24 22:52 2.73995 -35.09425 39918 ft 475 kts 205°
2026-04-24 22:53 2.68164 -35.12529 39913 ft 475 kts 205°
2026-04-24 22:53 2.62309 -35.15638 39908 ft 475 kts 205°
2026-04-24 22:54 2.56455 -35.18746 39907 ft 474 kts 205°
2026-04-24 22:54 2.50619 -35.21843 39907 ft 474 kts 205°
2026-04-24 22:55 2.44799 -35.24932 39908 ft 474 kts 205°
2026-04-24 22:55 2.38981 -35.28019 39908 ft 474 kts 205°
2026-04-24 22:56 2.33116 -35.31131 39914 ft 475 kts 205°
2026-04-24 22:56 2.27301 -35.34215 39919 ft 474 kts 205°
2026-04-24 22:57 2.21471 -35.37310 39913 ft 474 kts 205°
2026-04-24 22:57 2.15631 -35.40408 39918 ft 474 kts 205°
2026-04-24 22:58 2.09813 -35.43494 39923 ft 473 kts 205°
2026-04-24 22:58 2.03974 -35.46590 39925 ft 474 kts 205°
2026-04-24 22:59 1.98127 -35.49690 39926 ft 475 kts 205°
2026-04-24 23:00 1.89376 -35.54332 39925 ft 473 kts 205°
2026-04-24 23:00 1.83597 -35.57396 39926 ft 473 kts 205°
2026-04-24 23:01 1.77756 -35.60494 39929 ft 473 kts 205°
2026-04-24 23:01 1.71929 -35.63583 39929 ft 471 kts 205°
2026-04-24 23:02 1.66127 -35.66658 39920 ft 472 kts 205°
2026-04-24 23:02 1.60354 -35.69718 39922 ft 471 kts 205°
2026-04-24 23:03 1.54549 -35.72796 39921 ft 471 kts 205°
2026-04-24 23:03 1.48738 -35.75875 39921 ft 471 kts 205°
2026-04-24 23:04 1.42930 -35.78953 39923 ft 475 kts 205°
2026-04-24 23:04 1.37037 -35.82076 39922 ft 479 kts 205°
2026-04-24 23:05 1.31119 -35.85212 39925 ft 481 kts 205°
2026-04-24 23:05 1.25262 -35.88316 39923 ft 477 kts 205°
2026-04-24 23:06 1.19403 -35.91421 39922 ft 475 kts 205°
2026-04-24 23:06 1.13535 -35.94530 39921 ft 475 kts 205°
2026-04-24 23:07 1.07670 -35.97638 39923 ft 475 kts 205°
2026-04-24 23:07 1.01848 -36.00722 39918 ft 476 kts 205°
2026-04-24 23:08 0.96008 -36.03817 39921 ft 474 kts 205°
2026-04-24 23:08 0.90163 -36.06912 39921 ft 475 kts 205°
2026-04-24 23:09 0.84295 -36.10021 39921 ft 479 kts 205°
2026-04-24 23:09 0.78382 -36.13154 39921 ft 481 kts 205°
2026-04-24 23:10 0.72422 -36.16309 39921 ft 480 kts 205°
2026-04-24 23:10 0.66522 -36.19436 39918 ft 480 kts 206°
2026-04-24 23:11 0.60612 -36.22566 39915 ft 481 kts 206°
2026-04-24 23:11 0.54698 -36.25699 39914 ft 481 kts 206°
2026-04-24 23:12 0.48785 -36.28830 39910 ft 482 kts 206°
2026-04-24 23:12 0.42811 -36.31993 39906 ft 483 kts 206°
2026-04-24 23:13 0.36869 -36.35140 39905 ft 483 kts 206°
2026-04-24 23:13 0.30915 -36.38294 39904 ft 483 kts 206°
2026-04-24 23:14 0.24967 -36.41444 39905 ft 483 kts 206°
2026-04-24 23:14 0.19021 -36.44593 39905 ft 483 kts 206°
2026-04-24 23:15 0.13087 -36.47736 39906 ft 484 kts 206°
2026-04-24 23:15 0.07099 -36.50907 39906 ft 485 kts 206°
2026-04-24 23:16 0.01167 -36.54049 39905 ft 486 kts 206°
2026-04-24 23:16 -0.04824 -36.57221 39905 ft 487 kts 206°
2026-04-24 23:17 -0.10805 -36.60390 39906 ft 486 kts 206°
2026-04-24 23:17 -0.16808 -36.63569 39907 ft 486 kts 206°
2026-04-24 23:18 -0.22786 -36.66736 39901 ft 487 kts 206°
2026-04-24 23:18 -0.28785 -36.69912 39902 ft 487 kts 206°
2026-04-24 23:19 -0.34779 -36.73087 39911 ft 488 kts 206°
2026-04-24 23:19 -0.40806 -36.76279 39920 ft 488 kts 205°
2026-04-24 23:20 -0.46843 -36.79475 39922 ft 487 kts 205°
2026-04-24 23:20 -0.52834 -36.82649 39923 ft 487 kts 205°
2026-04-24 23:21 -0.58817 -36.85818 39924 ft 488 kts 205°
2026-04-24 23:21 -0.64827 -36.89002 39925 ft 490 kts 205°
2026-04-24 23:22 -0.70890 -36.92212 39926 ft 491 kts 205°
2026-04-24 23:22 -0.76893 -36.95393 39924 ft 490 kts 205°
2026-04-24 23:23 -0.82968 -36.98610 39922 ft 490 kts 205°
2026-04-24 23:23 -0.88995 -37.01804 39923 ft 489 kts 205°
2026-04-24 23:24 -0.94983 -37.04971 39923 ft 489 kts 204°
2026-04-24 23:24 -1.01255 -37.07666 39923 ft 488 kts 200°
2026-04-24 23:25 -1.07489 -37.10350 39923 ft 489 kts 200°
2026-04-24 23:25 -1.13779 -37.13067 39925 ft 490 kts 200°
2026-04-24 23:26 -1.20060 -37.15782 39919 ft 490 kts 200°
2026-04-24 23:26 -1.26310 -37.18483 39908 ft 490 kts 201°
2026-04-24 23:27 -1.32558 -37.21184 39909 ft 489 kts 201°
2026-04-24 23:27 -1.38839 -37.23900 39905 ft 489 kts 201°
2026-04-24 23:28 -1.45058 -37.26589 39905 ft 489 kts 201°
2026-04-24 23:28 -1.51322 -37.29297 39906 ft 489 kts 201°
2026-04-24 23:29 -1.57589 -37.32007 39906 ft 490 kts 201°
2026-04-24 23:29 -1.63861 -37.34719 39906 ft 490 kts 201°
2026-04-24 23:30 -1.70122 -37.37427 39906 ft 490 kts 201°
2026-04-24 23:30 -1.76396 -37.40140 39906 ft 489 kts 201°
2026-04-24 23:31 -1.82677 -37.42857 39907 ft 489 kts 201°
2026-04-24 23:31 -1.88920 -37.45558 39904 ft 490 kts 201°
2026-04-24 23:32 -1.95192 -37.48271 39901 ft 490 kts 201°
2026-04-24 23:32 -2.01487 -37.50995 39902 ft 491 kts 201°
2026-04-24 23:33 -2.07769 -37.53714 39905 ft 491 kts 201°
2026-04-24 23:33 -2.14027 -37.56420 39910 ft 490 kts 201°
2026-04-24 23:34 -2.20275 -37.59124 39911 ft 488 kts 201°
2026-04-24 23:34 -2.26548 -37.61839 39908 ft 488 kts 201°
2026-04-24 23:35 -2.32793 -37.64542 39910 ft 488 kts 201°
2026-04-24 23:35 -2.39022 -37.67238 39902 ft 487 kts 201°
2026-04-24 23:36 -2.45241 -37.69932 39903 ft 487 kts 201°
2026-04-24 23:36 -2.51490 -37.72638 39905 ft 487 kts 201°
2026-04-24 23:37 -2.57733 -37.75340 39914 ft 487 kts 201°
2026-04-24 23:37 -2.67069 -37.79382 39926 ft 486 kts 201°
2026-04-24 23:38 -2.73283 -37.82074 39922 ft 483 kts 201°
2026-04-24 23:38 -2.79442 -37.84742 39927 ft 484 kts 201°
2026-04-24 23:39 -2.85646 -37.87429 39923 ft 484 kts 201°
2026-04-24 23:39 -2.91870 -37.90127 39925 ft 486 kts 201°
2026-04-24 23:40 -2.98084 -37.92820 39925 ft 484 kts 201°
2026-04-24 23:40 -3.04233 -37.95483 39927 ft 484 kts 201°
2026-04-24 23:41 -3.10438 -37.98173 39925 ft 484 kts 201°
2026-04-24 23:41 -3.16596 -38.01009 39930 ft 485 kts 202°
2026-04-24 23:42 -3.22750 -38.03864 39930 ft 486 kts 202°
2026-04-24 23:42 -3.28898 -38.06714 39928 ft 486 kts 202°
2026-04-24 23:43 -3.35020 -38.09551 39927 ft 487 kts 202°
2026-04-24 23:43 -3.41171 -38.12403 39927 ft 487 kts 202°
2026-04-24 23:44 -3.47382 -38.15286 39927 ft 488 kts 202°
2026-04-24 23:44 -3.53324 -38.18484 39907 ft 492 kts 218°
2026-04-24 23:45 -3.55681 -38.20985 39953 ft 495 kts 233°
2026-04-24 23:45 -3.57438 -38.23974 39956 ft 497 kts 240°
2026-04-24 23:45 -3.61081 -38.29850 39933 ft 497 kts 236°
2026-04-24 23:46 -3.64831 -38.35649 39932 ft 496 kts 235°
2026-04-24 23:46 -3.68594 -38.41452 39934 ft 496 kts 236°
2026-04-24 23:47 -3.72352 -38.47247 39936 ft 496 kts 236°
2026-04-24 23:47 -3.76087 -38.53007 39937 ft 495 kts 236°
2026-04-24 23:48 -3.79723 -38.58872 39944 ft 494 kts 237°
2026-04-24 23:48 -3.83274 -38.64728 39947 ft 494 kts 237°
2026-04-24 23:49 -3.86834 -38.70594 39948 ft 494 kts 237°
2026-04-24 23:49 -3.90419 -38.76503 39954 ft 494 kts 237°
2026-04-24 23:50 -3.93981 -38.82376 39954 ft 492 kts 237°
2026-04-24 23:50 -3.97532 -38.88231 39955 ft 491 kts 237°
2026-04-24 23:51 -4.01061 -38.94053 39961 ft 491 kts 237°
2026-04-24 23:51 -4.04586 -38.99867 39970 ft 491 kts 237°
2026-04-24 23:52 -4.08125 -39.05709 39977 ft 492 kts 237°
2026-04-24 23:52 -4.11696 -39.11603 39979 ft 494 kts 237°
2026-04-24 23:53 -4.15251 -39.17471 39977 ft 493 kts 238°
2026-04-24 23:53 -4.18801 -39.23335 39975 ft 492 kts 238°
2026-04-24 23:54 -4.22355 -39.29205 39982 ft 494 kts 238°
2026-04-24 23:54 -4.25906 -39.35073 39986 ft 494 kts 237°
2026-04-24 23:55 -4.29461 -39.40947 39988 ft 495 kts 238°
2026-04-24 23:55 -4.33035 -39.46858 39999 ft 495 kts 238°
2026-04-24 23:56 -4.36668 -39.52716 39994 ft 492 kts 231°
2026-04-24 23:56 -4.39037 -39.55118 40025 ft 489 kts 216°
2026-04-24 23:56 -4.41852 -39.57078 40048 ft 490 kts 213°
2026-04-24 23:57 -4.47389 -39.61089 40038 ft 493 kts 214°
2026-04-24 23:57 -4.52915 -39.65164 40041 ft 493 kts 215°
2026-04-24 23:58 -4.58464 -39.69262 40036 ft 493 kts 215°
2026-04-24 23:58 -4.63970 -39.73330 40039 ft 492 kts 215°
2026-04-24 23:59 -4.69481 -39.77401 40043 ft 493 kts 215°
2026-04-24 23:59 -4.74958 -39.81556 40024 ft 495 kts 222°
2026-04-25 00:00 -4.77194 -39.84215 40076 ft 496 kts 234°
2026-04-25 00:00 -4.79179 -39.87041 40038 ft 499 kts 234°
2026-04-25 00:00 -4.83161 -39.92717 40048 ft 500 kts 234°
2026-04-25 00:01 -4.87160 -39.98432 40055 ft 498 kts 234°
2026-04-25 00:01 -4.91404 -40.03865 40026 ft 495 kts 220°
2026-04-25 00:02 -4.94241 -40.05766 40078 ft 492 kts 204°
2026-04-25 00:02 -4.97477 -40.07031 40068 ft 492 kts 199°
2026-04-25 00:02 -5.00515 -40.08594 40015 ft 497 kts 214°
2026-04-25 00:02 -5.03212 -40.10838 40089 ft 497 kts 219°
2026-04-25 00:03 -5.08954 -40.14694 40060 ft 496 kts 211°
2026-04-25 00:03 -5.14805 -40.18391 40048 ft 495 kts 211°
2026-04-25 00:04 -5.20641 -40.22076 40039 ft 496 kts 211°
2026-04-25 00:04 -5.26482 -40.25765 40037 ft 497 kts 211°
2026-04-25 00:05 -5.32327 -40.29458 40036 ft 496 kts 211°
2026-04-25 00:05 -5.38210 -40.33175 40032 ft 497 kts 211°
2026-04-25 00:06 -5.44064 -40.36874 40031 ft 497 kts 211°
2026-04-25 00:06 -5.49953 -40.40597 40027 ft 497 kts 211°
2026-04-25 00:07 -5.55794 -40.44290 40023 ft 498 kts 211°
2026-04-25 00:07 -5.61686 -40.48016 40021 ft 499 kts 211°
2026-04-25 00:08 -5.67586 -40.51750 40021 ft 499 kts 211°
2026-04-25 00:08 -5.73471 -40.55473 40022 ft 499 kts 211°
2026-04-25 00:09 -5.79317 -40.59173 40026 ft 500 kts 211°
2026-04-25 00:09 -5.85170 -40.63003 40021 ft 500 kts 216°
2026-04-25 00:10 -5.90720 -40.67213 40023 ft 500 kts 216°
2026-04-25 00:10 -5.96313 -40.71378 40030 ft 499 kts 216°
2026-04-25 00:11 -6.00991 -40.74858 40031 ft 500 kts 216°
2026-04-25 00:11 -6.07499 -40.79699 40036 ft 499 kts 216°
2026-04-25 00:12 -6.13114 -40.83878 40037 ft 498 kts 216°
2026-04-25 00:12 -6.18722 -40.88053 40043 ft 499 kts 216°
2026-04-25 00:13 -6.24273 -40.92185 40049 ft 498 kts 216°
2026-04-25 00:13 -6.29861 -40.96347 40052 ft 498 kts 216°
2026-04-25 00:14 -6.35466 -41.00522 40052 ft 499 kts 216°
2026-04-25 00:14 -6.41042 -41.04677 40045 ft 499 kts 216°
2026-04-25 00:15 -6.46639 -41.08849 40036 ft 498 kts 216°
2026-04-25 00:15 -6.52235 -41.13022 40030 ft 497 kts 216°
2026-04-25 00:16 -6.57791 -41.17165 40018 ft 497 kts 216°
2026-04-25 00:16 -6.63341 -41.21306 40012 ft 497 kts 216°
2026-04-25 00:17 -6.68940 -41.25484 40009 ft 498 kts 216°
2026-04-25 00:17 -6.74520 -41.29649 40011 ft 497 kts 216°
2026-04-25 00:18 -6.80083 -41.33802 40000 ft 496 kts 216°
2026-04-25 00:18 -6.85633 -41.37947 39991 ft 495 kts 216°
2026-04-25 00:19 -6.91195 -41.42102 39985 ft 495 kts 216°
2026-04-25 00:19 -6.96743 -41.46249 39976 ft 495 kts 216°
2026-04-25 00:20 -7.02281 -41.50389 39973 ft 495 kts 216°
2026-04-25 00:20 -7.07854 -41.54556 39977 ft 496 kts 216°
2026-04-25 00:21 -7.13391 -41.58698 39970 ft 495 kts 216°
2026-04-25 00:21 -7.18951 -41.62858 39969 ft 495 kts 216°
2026-04-25 00:22 -7.24497 -41.67009 39959 ft 494 kts 216°
2026-04-25 00:22 -7.30033 -41.71155 39959 ft 494 kts 216°
2026-04-25 00:23 -7.35555 -41.75290 39966 ft 494 kts 216°
2026-04-25 00:23 -7.41103 -41.79446 39967 ft 494 kts 216°
2026-04-25 00:24 -7.46637 -41.83593 39966 ft 494 kts 216°
2026-04-25 00:24 -7.52156 -41.87731 39970 ft 494 kts 216°
2026-04-25 00:25 -7.57678 -41.91871 39972 ft 493 kts 216°
2026-04-25 00:25 -7.63221 -41.96030 39969 ft 494 kts 216°
2026-04-25 00:26 -7.68732 -42.00166 39968 ft 493 kts 216°
2026-04-25 00:26 -7.74255 -42.04312 39974 ft 493 kts 216°
2026-04-25 00:27 -7.79793 -42.08470 39972 ft 493 kts 216°
2026-04-25 00:27 -7.85315 -42.12618 39975 ft 493 kts 216°
2026-04-25 00:28 -7.90817 -42.16752 39979 ft 493 kts 216°
2026-04-25 00:28 -7.96365 -42.20923 39980 ft 492 kts 216°
2026-04-25 00:29 -8.01847 -42.25045 39982 ft 492 kts 216°
2026-04-25 00:29 -8.07365 -42.29196 39979 ft 491 kts 216°
2026-04-25 00:30 -8.12850 -42.33322 39983 ft 490 kts 216°
2026-04-25 00:30 -8.18334 -42.37451 39986 ft 489 kts 216°
2026-04-25 00:31 -8.23809 -42.41573 39980 ft 489 kts 216°
2026-04-25 00:31 -8.29288 -42.45700 39987 ft 488 kts 216°
2026-04-25 00:32 -8.34765 -42.49827 39982 ft 487 kts 216°
2026-04-25 00:32 -8.39295 -42.53241 39984 ft 486 kts 216°
2026-04-25 00:33 -8.45634 -42.58021 39996 ft 486 kts 216°
2026-04-25 00:33 -8.51095 -42.62141 40007 ft 486 kts 216°
2026-04-25 00:34 -8.56516 -42.66231 40008 ft 485 kts 216°
2026-04-25 00:34 -8.61950 -42.70333 40017 ft 484 kts 216°
2026-04-25 00:35 -8.67373 -42.74428 40021 ft 484 kts 216°
2026-04-25 00:35 -8.72785 -42.78515 40023 ft 484 kts 216°
2026-04-25 00:36 -8.78230 -42.82629 40026 ft 483 kts 216°
2026-04-25 00:36 -8.83636 -42.86715 40026 ft 483 kts 216°
2026-04-25 00:37 -8.89062 -42.90818 40026 ft 483 kts 216°
2026-04-25 00:37 -8.94451 -42.94893 40033 ft 483 kts 216°
2026-04-25 00:38 -8.99862 -42.98988 40043 ft 483 kts 216°
2026-04-25 00:38 -9.05257 -43.03070 40043 ft 483 kts 216°
2026-04-25 00:39 -9.10691 -43.07186 40034 ft 483 kts 216°
2026-04-25 00:39 -9.16077 -43.11268 40038 ft 483 kts 216°
2026-04-25 00:40 -9.21471 -43.15354 40035 ft 483 kts 216°
2026-04-25 00:40 -9.26894 -43.19467 40035 ft 483 kts 216°
2026-04-25 00:41 -9.32286 -43.23556 40038 ft 483 kts 216°
2026-04-25 00:41 -9.37710 -43.27671 40039 ft 483 kts 216°
2026-04-25 00:42 -9.43099 -43.31762 40040 ft 483 kts 216°
2026-04-25 00:42 -9.48487 -43.35854 40033 ft 482 kts 216°
2026-04-25 00:43 -9.53894 -43.39960 40034 ft 482 kts 216°
2026-04-25 00:43 -9.59286 -43.44058 40029 ft 482 kts 216°
2026-04-25 00:44 -9.64678 -43.48158 40030 ft 482 kts 216°
2026-04-25 00:44 -9.70073 -43.52261 40021 ft 482 kts 216°
2026-04-25 00:45 -9.75465 -43.56363 40022 ft 482 kts 216°
2026-04-25 00:45 -9.80844 -43.60458 40025 ft 482 kts 216°
2026-04-25 00:46 -9.86226 -43.64557 40030 ft 483 kts 216°
2026-04-25 00:47 -9.94324 -43.70727 40036 ft 483 kts 216°
2026-04-25 00:47 -9.99733 -43.74850 40033 ft 482 kts 216°
2026-04-25 00:48 -10.05121 -43.78961 40031 ft 483 kts 217°
2026-04-25 00:48 -10.10485 -43.83055 40027 ft 483 kts 217°
2026-04-25 00:49 -10.15908 -43.87198 40024 ft 482 kts 217°
2026-04-25 00:49 -10.21301 -43.91319 40021 ft 482 kts 217°
2026-04-25 00:50 -10.26674 -43.95426 40019 ft 483 kts 216°
2026-04-25 00:50 -10.32058 -43.99543 40019 ft 483 kts 216°
2026-04-25 00:51 -10.37427 -44.03651 40023 ft 482 kts 217°
2026-04-25 00:51 -10.42818 -44.07777 40027 ft 482 kts 217°
2026-04-25 00:52 -10.48187 -44.11889 40031 ft 482 kts 217°
2026-04-25 00:52 -10.53593 -44.16029 40033 ft 483 kts 216°
2026-04-25 00:53 -10.59001 -44.20163 40031 ft 483 kts 216°
2026-04-25 00:53 -10.64402 -44.24294 40027 ft 483 kts 216°
2026-04-25 00:54 -10.69774 -44.28405 40022 ft 483 kts 216°
2026-04-25 00:54 -10.75162 -44.32529 40024 ft 483 kts 216°
2026-04-25 00:55 -10.80580 -44.36680 40022 ft 483 kts 216°
2026-04-25 00:55 -10.85973 -44.40812 40018 ft 483 kts 216°
2026-04-25 00:56 -10.91342 -44.44929 40018 ft 483 kts 216°
2026-04-25 00:56 -10.96765 -44.49088 40024 ft 484 kts 216°
2026-04-25 00:57 -11.02295 -44.53001 39997 ft 481 kts 205°
2026-04-25 00:57 -11.08464 -44.55778 40006 ft 483 kts 203°
2026-04-25 00:58 -11.14609 -44.58625 40022 ft 483 kts 204°
2026-04-25 00:58 -11.20738 -44.61480 40020 ft 484 kts 204°
2026-04-25 00:59 -11.26885 -44.64343 40021 ft 483 kts 204°
2026-04-25 00:59 -11.33073 -44.67228 40021 ft 483 kts 204°
2026-04-25 01:00 -11.39208 -44.70090 40029 ft 483 kts 204°
2026-04-25 01:00 -11.45356 -44.72959 40037 ft 484 kts 203°
2026-04-25 01:01 -11.51492 -44.75823 40045 ft 484 kts 204°
2026-04-25 01:01 -11.57657 -44.78703 40038 ft 485 kts 204°
2026-04-25 01:02 -11.63829 -44.81587 40036 ft 485 kts 204°
2026-04-25 01:02 -11.70010 -44.84477 40031 ft 485 kts 203°
2026-04-25 01:03 -11.76185 -44.87365 40031 ft 485 kts 203°
2026-04-25 01:03 -11.82344 -44.90248 40027 ft 485 kts 203°
2026-04-25 01:04 -11.88504 -44.93132 40025 ft 486 kts 204°
2026-04-25 01:04 -11.94692 -44.96031 40021 ft 487 kts 204°
2026-04-25 01:05 -12.00866 -44.98925 40015 ft 487 kts 203°
2026-04-25 01:05 -12.07082 -45.01840 40032 ft 488 kts 203°
2026-04-25 01:06 -12.13263 -45.04740 40051 ft 487 kts 203°
2026-04-25 01:06 -12.19435 -45.07637 40065 ft 487 kts 203°
2026-04-25 01:07 -12.25649 -45.10556 40073 ft 487 kts 203°
2026-04-25 01:07 -12.31840 -45.13466 40076 ft 488 kts 203°
2026-04-25 01:08 -12.38081 -45.16400 40083 ft 490 kts 203°
2026-04-25 01:08 -12.44303 -45.19326 40083 ft 490 kts 203°
2026-04-25 01:09 -12.50533 -45.22258 40080 ft 490 kts 203°
2026-04-25 01:09 -12.56783 -45.25201 40078 ft 491 kts 203°
2026-04-25 01:10 -12.63000 -45.28130 40082 ft 491 kts 203°
2026-04-25 01:10 -12.69262 -45.31081 40088 ft 492 kts 203°
2026-04-25 01:11 -12.75519 -45.34031 40088 ft 494 kts 203°
2026-04-25 01:11 -12.81789 -45.36989 40096 ft 494 kts 203°
2026-04-25 01:12 -12.88083 -45.39961 40099 ft 493 kts 203°
2026-04-25 01:12 -12.94330 -45.42910 40104 ft 494 kts 203°
2026-04-25 01:13 -13.00610 -45.45878 40107 ft 496 kts 203°
2026-04-25 01:13 -13.06902 -45.48854 40109 ft 496 kts 203°
2026-04-25 01:14 -13.13212 -45.51839 40109 ft 496 kts 203°
2026-04-25 01:14 -13.19523 -45.54826 40110 ft 496 kts 203°
2026-04-25 01:15 -13.25841 -45.57819 40113 ft 496 kts 203°
2026-04-25 01:15 -13.32121 -45.60795 40117 ft 496 kts 203°
2026-04-25 01:16 -13.38194 -45.64313 40118 ft 498 kts 208°
2026-04-25 01:16 -13.44223 -45.67854 40113 ft 499 kts 208°
2026-04-25 01:17 -13.50306 -45.71414 40114 ft 499 kts 208°
2026-04-25 01:17 -13.56359 -45.74955 40114 ft 499 kts 208°
2026-04-25 01:18 -13.62438 -45.78515 40113 ft 499 kts 208°
2026-04-25 01:18 -13.68500 -45.82066 40121 ft 499 kts 208°
2026-04-25 01:19 -13.74587 -45.85634 40126 ft 499 kts 208°
2026-04-25 01:19 -13.80623 -45.89174 40130 ft 499 kts 208°
2026-04-25 01:20 -13.86686 -45.92732 40133 ft 501 kts 208°
2026-04-25 01:20 -13.92801 -45.96323 40137 ft 506 kts 208°
2026-04-25 01:21 -13.98993 -45.99961 40140 ft 508 kts 208°
2026-04-25 01:21 -14.05138 -46.03574 40139 ft 508 kts 208°
2026-04-25 01:22 -14.11330 -46.07217 40135 ft 506 kts 208°
2026-04-25 01:22 -14.17469 -46.10836 40135 ft 506 kts 208°
2026-04-25 01:23 -14.23572 -46.14440 40136 ft 507 kts 208°
2026-04-25 01:23 -14.29729 -46.18077 40127 ft 507 kts 208°
2026-04-25 01:24 -14.35897 -46.21725 40118 ft 506 kts 208°
2026-04-25 01:24 -14.42055 -46.25368 40111 ft 506 kts 208°
2026-04-25 01:25 -14.48201 -46.29007 40106 ft 506 kts 208°
2026-04-25 01:25 -14.54327 -46.32636 40103 ft 506 kts 208°
2026-04-25 01:26 -14.60309 -46.36458 40034 ft 505 kts 220°
2026-04-25 01:26 -14.62670 -46.39145 40033 ft 504 kts 236°
2026-04-25 01:26 -14.64505 -46.42245 40075 ft 506 kts 238°
2026-04-25 01:27 -14.68352 -46.48380 40064 ft 509 kts 237°
2026-04-25 01:27 -14.72281 -46.54529 40051 ft 506 kts 236°
2026-04-25 01:28 -14.78028 -46.63514 40039 ft 498 kts 236°
2026-04-25 01:28 -14.81881 -46.69544 40030 ft 498 kts 237°
2026-04-25 01:29 -14.85714 -46.75545 39674 ft 502 kts 237°
2026-04-25 01:29 -14.87611 -46.78518 39259 ft 494 kts 237°
2026-04-25 01:29 -14.89513 -46.81497 38367 ft 491 kts 237°
2026-04-25 01:30 -14.91383 -46.84432 37586 ft 492 kts 237°
2026-04-25 01:30 -14.93282 -46.87411 36832 ft 504 kts 237°
2026-04-25 01:30 -14.95234 -46.90473 36094 ft 507 kts 237°
2026-04-25 01:30 -14.97175 -46.93521 35398 ft 506 kts 237°
2026-04-25 01:31 -14.99104 -46.96550 34715 ft 502 kts 236°
2026-04-25 01:31 -15.01040 -46.99591 34056 ft 507 kts 236°
2026-04-25 01:31 -15.02986 -47.02649 33367 ft 510 kts 236°
2026-04-25 01:31 -15.04971 -47.05770 32594 ft 516 kts 236°
2026-04-25 01:32 -15.06265 -47.07807 32028 ft 516 kts 236°
2026-04-25 01:32 -15.08905 -47.11961 30955 ft 509 kts 236°
2026-04-25 01:32 -15.10825 -47.14984 30279 ft 503 kts 236°
2026-04-25 01:32 -15.12752 -47.18019 29649 ft 496 kts 236°
2026-04-25 01:33 -15.14646 -47.21002 29011 ft 491 kts 236°
2026-04-25 01:33 -15.16506 -47.23932 28358 ft 486 kts 236°
2026-04-25 01:33 -15.18359 -47.26851 27700 ft 481 kts 236°
2026-04-25 01:33 -15.20200 -47.29756 27091 ft 476 kts 236°
2026-04-25 01:34 -15.22000 -47.32595 26555 ft 468 kts 236°
2026-04-25 01:34 -15.23788 -47.35417 26035 ft 466 kts 236°
2026-04-25 01:34 -15.25550 -47.38200 25529 ft 464 kts 236°
2026-04-25 01:34 -15.27337 -47.41022 24987 ft 462 kts 236°
2026-04-25 01:35 -15.29098 -47.43804 24408 ft 458 kts 236°
2026-04-25 01:35 -15.30829 -47.46541 23792 ft 455 kts 236°
2026-04-25 01:35 -15.32557 -47.49273 23175 ft 451 kts 236°
2026-04-25 01:35 -15.34271 -47.51984 22547 ft 447 kts 236°
2026-04-25 01:36 -15.35974 -47.54677 21940 ft 444 kts 236°
2026-04-25 01:36 -15.37670 -47.57364 21346 ft 439 kts 237°
2026-04-25 01:36 -15.39329 -47.59989 20768 ft 433 kts 237°
2026-04-25 01:36 -15.40958 -47.62569 20200 ft 427 kts 237°
2026-04-25 01:37 -15.42598 -47.65168 19627 ft 421 kts 237°
2026-04-25 01:37 -15.44178 -47.67674 19177 ft 412 kts 237°
2026-04-25 01:37 -15.45731 -47.70143 18653 ft 404 kts 237°
2026-04-25 01:37 -15.47261 -47.72571 17939 ft 402 kts 237°
2026-04-25 01:38 -15.48800 -47.75014 17235 ft 400 kts 237°
2026-04-25 01:38 -15.50329 -47.77440 16547 ft 397 kts 237°
2026-04-25 01:38 -15.51839 -47.79837 15861 ft 395 kts 238°
2026-04-25 01:38 -15.53330 -47.82204 15243 ft 390 kts 238°
2026-04-25 01:39 -15.54780 -47.84507 14916 ft 376 kts 238°
2026-04-25 01:39 -15.56190 -47.86749 14577 ft 366 kts 238°
2026-04-25 01:39 -15.57581 -47.88960 14155 ft 358 kts 238°
2026-04-25 01:39 -15.58931 -47.91107 13669 ft 353 kts 238°
2026-04-25 01:40 -15.60264 -47.93228 13148 ft 348 kts 238°
2026-04-25 01:40 -15.61572 -47.95307 12590 ft 337 kts 238°
2026-04-25 01:40 -15.62824 -47.97300 12077 ft 327 kts 238°
2026-04-25 01:40 -15.64068 -47.99281 11620 ft 321 kts 238°
2026-04-25 01:41 -15.65274 -48.01202 11154 ft 320 kts 238°
2026-04-25 01:41 -15.66508 -48.03167 10660 ft 321 kts 238°
2026-04-25 01:41 -15.67700 -48.05065 10535 ft 307 kts 238°
2026-04-25 01:41 -15.68842 -48.06884 10528 ft 293 kts 238°
2026-04-25 01:42 -15.69962 -48.08670 10281 ft 292 kts 238°
2026-04-25 01:42 -15.71061 -48.10422 10099 ft 284 kts 238°
2026-04-25 01:42 -15.72131 -48.12128 10101 ft 281 kts 238°
2026-04-25 01:42 -15.73193 -48.13822 10076 ft 275 kts 238°
2026-04-25 01:43 -15.74235 -48.15483 9865 ft 271 kts 238°
2026-04-25 01:43 -15.75265 -48.17129 9536 ft 272 kts 238°
2026-04-25 01:43 -15.76297 -48.18776 9149 ft 275 kts 238°
2026-04-25 01:43 -15.77351 -48.20456 8716 ft 271 kts 238°
2026-04-25 01:44 -15.78594 -48.21862 8288 ft 264 kts 213°
2026-04-25 01:44 -15.80288 -48.22513 7921 ft 257 kts 185°
2026-04-25 01:44 -15.82048 -48.22390 7601 ft 254 kts 171°
2026-04-25 01:44 -15.83810 -48.22091 7286 ft 254 kts 161°
2026-04-25 01:45 -15.85269 -48.21130 7090 ft 248 kts 130°
2026-04-25 01:45 -15.86127 -48.19600 6974 ft 246 kts 112°
2026-04-25 01:45 -15.86840 -48.17984 6839 ft 242 kts 113°
2026-04-25 01:45 -15.87534 -48.16434 6754 ft 235 kts 111°
2026-04-25 01:46 -15.87780 -48.14787 6711 ft 225 kts 84°
2026-04-25 01:46 -15.87661 -48.13202 6688 ft 221 kts 85°
2026-04-25 01:46 -15.87560 -48.11610 6670 ft 221 kts 84°
2026-04-25 01:46 -15.87457 -48.10005 6617 ft 221 kts 84°
2026-04-25 01:47 -15.87348 -48.08409 6296 ft 219 kts 85°
2026-04-25 01:47 -15.87251 -48.06873 6034 ft 211 kts 85°
2026-04-25 01:47 -15.87157 -48.05402 5844 ft 198 kts 85°
2026-04-25 01:47 -15.87068 -48.04017 5578 ft 185 kts 85°
2026-04-25 01:48 -15.86986 -48.02727 5294 ft 174 kts 85°
2026-04-25 01:48 -15.86908 -48.01523 5073 ft 163 kts 85°
2026-04-25 01:48 -15.86834 -48.00353 4851 ft 154 kts 85°
2026-04-25 01:48 -15.86767 -47.99309 4630 ft 139 kts 86°
2026-04-25 01:49 -15.86704 -47.98328 4468 ft 135 kts 86°
2026-04-25 01:49 -15.86640 -47.97348 4310 ft 135 kts 86°
2026-04-25 01:49 -15.86578 -47.96373 4151 ft 135 kts 86°
2026-04-25 01:49 -15.86515 -47.95413 3985 ft 135 kts 86°
2026-04-25 01:50 -15.86454 -47.94439 3816 ft 134 kts 87°
2026-04-25 01:50 -15.86393 -47.93466 3647 ft 134 kts 87°
2026-04-25 01:50 -15.86335 -47.92503 3493 ft 133 kts 87°
2026-04-25 01:50 -15.86289 -47.91721 3486 ft 69 kts 84°
2026-04-25 01:51 -15.86261 -47.91332 3490 ft 45 kts 86°
2026-04-25 01:51 -15.86243 -47.91045 3493 ft 33 kts 86°
2026-04-25 01:51 -15.86249 -47.90865 3494 ft 20 kts 115°
2026-04-25 01:51 -15.86319 -47.90773 3494 ft 9 kts 131°
2026-04-25 01:52 -15.86367 -47.90722 3494 ft 10 kts 147°
2026-04-25 01:52 -15.86439 -47.90707 3493 ft 10 kts 175°
2026-04-25 01:52 -15.86511 -47.90689 3493 ft 10 kts 130°
2026-04-25 01:52 -15.86516 -47.90612 3492 ft 11 kts 85°
2026-04-25 01:53 -15.86511 -47.90532 3492 ft 11 kts 86°
2026-04-25 01:53 -15.86521 -47.90467 3491 ft 8 kts 148°
2026-04-25 01:53 -15.86543 -47.90488 3491 ft 4 kts 257°
2026-04-25 01:53 -15.86545 -47.90501 3491 ft 0 kts 266°